Albuquerque, NM

8:30 AM MDT on May 20, 2018 (GMT -0600)
Albuquerque International Sunport

Weather History for KABQ - July, 2013

Change the Weather History Date:

Saturday, July 27, 2013

  Actual Average Record
Temperature  
Mean Temperature 73 °F 78 °F  
Max Temperature 83 °F 89 °F 103 °F (1979)
Min Temperature 63 °F 67 °F 46 °F (1913)
Degree Days  
Heating Degree Days 0 0  
Month to date heating degree days 0 0  
Since 1 June heating degree days 0 4  
Since 1 July heating degree days 0 0  
Cooling Degree Days 8 13  
Month to date cooling degree days 347 362  
Year to date cooling degree days 919 762  
Since 1 June cooling degree days 802 664  
Growing Degree Days 22 (Base 50)    
Moisture  
Dew Point 56 °F    
Average Humidity 62    
Maximum Humidity 84    
Minimum Humidity 39    
Precipitation  
Precipitation 0.00 in 0.06 in 0.88 in (1964)
Month to date precipitation 2.74 1.27  
Year to date precipitation 3.44 4.47  
Snow  
Snow 0.00 in - - ()
Month to date snowfall 0.0  
Since 1 June snowfall 0.0  
Since 1 July snowfall 0.0  
Snow Depth 0.00 in    
Sea Level Pressure  
Sea Level Pressure 30.01 in    
Wind  
Wind Speed 7 mph (SSW)    
Max Wind Speed 17 mph    
Max Gust Speed 25 mph    
Visibility 10 miles    
Events      
T = Trace of Precipitation, MM = Missing Value Source: NWS Daily Summary

Daily Weather History Graph

Daily Weather History Graph

Search for Another Location

Airport or City:

Astronomy

Jul. 27, 2013 Rise Set
Actual Time 6:12 AM MDT 8:13 PM MDT
Civil Twilight 5:44 AM MDT 8:41 PM MDT
Nautical Twilight 5:09 AM MDT 9:15 PM MDT
Astronomical Twilight 4:33 AM MDT 9:52 PM MDT
Moon 11:18 PM MDT (7/27) 11:39 AM MDT (7/27)
Length of Visible Light 14h 57m
Length of Day
14h 00m
Waning Gibbous, 70% of the Moon is Illuminated
Jul 27
Waning Gibbous
Jul 29
Last Quarter
Aug 6
New
Aug 14
First Quarter
Aug 20
Full

Hourly Weather History & Observations

Time (MDT) Temp. Heat Index Dew Point Humidity Pressure Visibility Wind Dir Wind Speed Gust Speed Precip Events Conditions
12:52 AM 68.0 °F - 55.0 °F 63% 30.11 in 10.0 mi South 16.1 mph - N/A   Overcast
1:52 AM 64.0 °F - 59.0 °F 84% 30.12 in 10.0 mi SW 6.9 mph - N/A   Mostly Cloudy
2:52 AM 64.9 °F - 57.0 °F 75% 30.11 in 10.0 mi North 9.2 mph - N/A   Overcast
3:52 AM 64.9 °F - 57.0 °F 75% 30.10 in 10.0 mi WSW 5.8 mph - N/A   Mostly Cloudy
4:52 AM 64.9 °F - 55.9 °F 73% 30.10 in 10.0 mi Calm Calm - N/A   Mostly Cloudy
5:52 AM 64.0 °F - 57.0 °F 78% 30.09 in 10.0 mi Calm Calm - N/A   Mostly Cloudy
6:52 AM 64.9 °F - 57.0 °F 75% 30.09 in 10.0 mi NNW 4.6 mph - N/A   Mostly Cloudy
7:52 AM 66.0 °F - 57.0 °F 73% 30.16 in 10.0 mi NNE 8.1 mph - N/A   Mostly Cloudy
8:52 AM 69.1 °F - 55.9 °F 63% 30.14 in 10.0 mi Calm Calm - N/A   Scattered Clouds
9:52 AM 70.0 °F - 57.0 °F 63% 30.11 in 10.0 mi Calm Calm - N/A   Scattered Clouds
10:52 AM 71.1 °F - 55.9 °F 59% 30.09 in 10.0 mi Calm Calm - N/A   Scattered Clouds
11:52 AM 73.9 °F - 55.9 °F 53% 30.06 in 10.0 mi Variable 4.6 mph - N/A   Scattered Clouds
12:52 PM 75.9 °F - 55.0 °F 48% 30.03 in 10.0 mi South 10.4 mph - N/A   Scattered Clouds
1:52 PM 79.0 °F - 55.9 °F 45% 30.00 in 10.0 mi Variable 4.6 mph - N/A   Scattered Clouds
2:52 PM 81.0 °F 80.4 °F 53.1 °F 38% 29.95 in 10.0 mi SSW 13.8 mph 19.6 mph N/A   Scattered Clouds
3:52 PM 82.0 °F 81.4 °F 55.0 °F 39% 29.90 in 10.0 mi WSW 12.7 mph 25.3 mph N/A   Scattered Clouds
4:52 PM 81.0 °F 80.5 °F 54.0 °F 39% 29.89 in 10.0 mi SSW 11.5 mph - N/A   Scattered Clouds
5:52 PM 81.0 °F 80.5 °F 54.0 °F 39% 29.88 in 10.0 mi South 15.0 mph - N/A   Mostly Cloudy
6:52 PM 79.0 °F - 55.0 °F 44% 29.88 in 10.0 mi SSW 10.4 mph - N/A   Mostly Cloudy
7:52 PM 77.0 °F - 57.0 °F 50% 29.88 in 10.0 mi South 10.4 mph - N/A   Mostly Cloudy
8:52 PM 75.9 °F - 57.9 °F 54% 29.88 in 10.0 mi South 9.2 mph - N/A   Mostly Cloudy
9:52 PM 73.0 °F - 60.1 °F 64% 29.91 in 10.0 mi SE 6.9 mph - N/A   Scattered Clouds
10:52 PM 71.1 °F - 60.1 °F 68% 29.91 in 10.0 mi SE 8.1 mph - N/A   Scattered Clouds
11:52 PM 71.1 °F - 60.1 °F 68% 29.91 in 10.0 mi SSE 6.9 mph - N/A   Mostly Cloudy